EXS54DM LGKL-EGSS

Flight info

Callsign EXS54DM
Flight time 3h 24m
Altitude 38000
Route ANEPI DCT TRL UN1 ARA DCT YNN UL611 TUMBO DCT OVVER DCT RODON DCT VAKSU DCT HUM DCT SPL DCT MONFA DCT BAKOR DCT SOTOV P66 KPT L608 KUNOD DCT KRH DCT LIRSU DCT SPI DCT KOZUF DCT IMPOH DCT SASKI L608 SUMUM Y6 TOSVA
Aircraft B738/M-SDE2E3FGHIRWXY/LB1

Departure

Time 2026-04-20 14:20
Airport Kalamata Airport (LGKL)

Arrival

Time 2026-04-20 17:45
Airport London Stansted Airport (EGSS)
Time Latitude Longitude Altitude Speed Heading
2026-04-20 14:12 37.05542 22.03336 34 ft 0 kts 117°
2026-04-20 14:17 37.05540 22.03338 34 ft 3 kts 130°
2026-04-20 14:17 37.05495 22.03312 32 ft 12 kts 237°
2026-04-20 14:17 37.05499 22.03209 32 ft 12 kts 294°
2026-04-20 14:18 37.05532 22.03059 34 ft 28 kts 284°
2026-04-20 14:18 37.05696 22.02933 31 ft 40 kts 350°
2026-04-20 14:18 37.06167 22.02823 33 ft 98 kts 349°
2026-04-20 14:18 37.06809 22.02676 33 ft 88 kts 350°
2026-04-20 14:19 37.07383 22.02540 33 ft 80 kts 349°
2026-04-20 14:19 37.07907 22.02421 33 ft 73 kts 349°
2026-04-20 14:19 37.08185 22.02316 33 ft 15 kts 268°
2026-04-20 14:19 37.08091 22.02247 34 ft 21 kts 171°
2026-04-20 14:20 37.07841 22.02306 32 ft 75 kts 169°
2026-04-20 14:20 37.07038 22.02494 34 ft 156 kts 169°
2026-04-20 14:20 37.05828 22.02787 567 ft 189 kts 169°
2026-04-20 14:20 37.04536 22.03099 1781 ft 190 kts 171°
2026-04-20 14:21 37.03152 22.03443 2417 ft 215 kts 167°
2026-04-20 14:21 37.01832 22.04535 2624 ft 249 kts 126°
2026-04-20 14:21 37.01270 22.06639 2967 ft 268 kts 87°
2026-04-20 14:21 37.01844 22.08836 3730 ft 270 kts 50°
2026-04-20 14:22 37.03244 22.10333 4773 ft 263 kts 27°
2026-04-20 14:22 37.04869 22.11404 5739 ft 266 kts 22°
2026-04-20 14:22 37.06537 22.12395 6635 ft 271 kts 22°
2026-04-20 14:22 37.08253 22.13411 7533 ft 275 kts 22°
2026-04-20 14:23 37.09983 22.14459 8434 ft 278 kts 22°
2026-04-20 14:23 37.11729 22.15538 9313 ft 282 kts 22°
2026-04-20 14:23 37.13489 22.16641 10227 ft 283 kts 22°
2026-04-20 14:23 37.15298 22.17782 10718 ft 303 kts 23°
2026-04-20 14:24 37.17267 22.19033 10891 ft 330 kts 23°
2026-04-20 14:24 37.19395 22.20393 11081 ft 355 kts 24°
2026-04-20 14:24 37.21657 22.21848 11355 ft 374 kts 24°
2026-04-20 14:24 37.23967 22.23347 11945 ft 382 kts 24°
2026-04-20 14:25 37.26342 22.24884 12665 ft 386 kts 24°
2026-04-20 14:25 37.28734 22.26436 13419 ft 389 kts 24°
2026-04-20 14:25 37.31154 22.28003 14110 ft 394 kts 24°
2026-04-20 14:25 37.33599 22.29587 14746 ft 397 kts 24°
2026-04-20 14:26 37.36071 22.31134 15422 ft 397 kts 18°
2026-04-20 14:26 37.38746 22.31823 16065 ft 391 kts 356°
2026-04-20 14:26 37.41405 22.31291 16801 ft 387 kts 339°
2026-04-20 14:26 37.43800 22.29895 17443 ft 386 kts 324°
2026-04-20 14:27 37.45857 22.27721 18081 ft 388 kts 316°
2026-04-20 14:27 37.47824 22.25372 18686 ft 391 kts 315°
2026-04-20 14:27 37.49782 22.22985 19267 ft 393 kts 315°
2026-04-20 14:27 37.51745 22.20588 19849 ft 394 kts 315°
2026-04-20 14:28 37.53729 22.18177 20377 ft 397 kts 315°
2026-04-20 14:28 37.55727 22.15760 20974 ft 399 kts 315°
2026-04-20 14:28 37.57737 22.13339 21489 ft 401 kts 315°
2026-04-20 14:28 37.59738 22.10934 22017 ft 403 kts 315°
2026-04-20 14:29 37.61771 22.08495 22553 ft 405 kts 315°
2026-04-20 14:29 37.63818 22.06039 23055 ft 407 kts 315°
2026-04-20 14:29 37.65881 22.03564 23540 ft 410 kts 315°
2026-04-20 14:29 37.67951 22.01077 23961 ft 412 kts 315°
2026-04-20 14:30 37.70031 21.98577 24396 ft 414 kts 315°
2026-04-20 14:30 37.72120 21.96064 24770 ft 416 kts 315°
2026-04-20 14:30 37.74220 21.93536 25145 ft 418 kts 315°
2026-04-20 14:30 37.76333 21.90988 25515 ft 420 kts 315°
2026-04-20 14:31 37.78455 21.88429 25855 ft 423 kts 315°
2026-04-20 14:31 37.80555 21.85894 26181 ft 425 kts 315°
2026-04-20 14:31 37.82697 21.83306 26512 ft 427 kts 315°
2026-04-20 14:31 37.84844 21.80709 26842 ft 428 kts 315°
2026-04-20 14:32 37.87004 21.78095 27124 ft 431 kts 315°
2026-04-20 14:32 37.89173 21.75468 27471 ft 432 kts 315°
2026-04-20 14:32 37.91340 21.72840 27946 ft 430 kts 315°
2026-04-20 14:32 37.93495 21.70226 28511 ft 427 kts 315°
2026-04-20 14:33 37.95634 21.67628 29036 ft 425 kts 315°
2026-04-20 14:33 37.97735 21.65074 29473 ft 424 kts 315°
2026-04-20 14:33 37.99865 21.62482 29916 ft 424 kts 315°
2026-04-20 14:33 38.01995 21.59889 30314 ft 424 kts 315°
2026-04-20 14:34 38.04114 21.57305 30734 ft 422 kts 315°
2026-04-20 14:34 38.06225 21.54731 31190 ft 419 kts 315°
2026-04-20 14:34 38.08322 21.52172 31604 ft 417 kts 315°
2026-04-20 14:34 38.10409 21.49622 31988 ft 416 kts 315°
2026-04-20 14:35 38.12495 21.47072 32370 ft 415 kts 315°
2026-04-20 14:35 38.14726 21.44746 32748 ft 416 kts 324°
2026-04-20 14:35 38.17163 21.42870 33146 ft 416 kts 329°
2026-04-20 14:35 38.19792 21.41333 33514 ft 418 kts 337°
2026-04-20 14:36 38.22562 21.40211 33868 ft 418 kts 339°
2026-04-20 14:36 38.25349 21.39151 34202 ft 418 kts 340°
2026-04-20 14:36 38.28142 21.38101 34404 ft 419 kts 340°
2026-04-20 14:36 38.30942 21.37043 34615 ft 420 kts 340°
2026-04-20 14:37 38.33738 21.35980 34895 ft 420 kts 340°
2026-04-20 14:37 38.36535 21.34907 35175 ft 419 kts 340°
2026-04-20 14:37 38.39322 21.33832 35411 ft 419 kts 339°
2026-04-20 14:37 38.42079 21.32764 35641 ft 419 kts 339°
2026-04-20 14:38 38.44867 21.31681 35892 ft 419 kts 339°
2026-04-20 14:38 38.47657 21.30595 36150 ft 419 kts 339°
2026-04-20 14:38 38.50445 21.29509 36366 ft 419 kts 340°
2026-04-20 14:38 38.53238 21.28420 36583 ft 420 kts 340°
2026-04-20 14:39 38.56034 21.27329 36842 ft 419 kts 340°
2026-04-20 14:39 38.58821 21.26241 37095 ft 419 kts 340°
2026-04-20 14:39 38.61612 21.25151 37299 ft 420 kts 340°
2026-04-20 14:39 38.64404 21.24059 37488 ft 420 kts 340°
2026-04-20 14:40 38.67203 21.22964 37720 ft 420 kts 340°
2026-04-20 14:40 38.69954 21.21886 37971 ft 419 kts 340°
2026-04-20 14:40 38.75565 21.19686 38034 ft 423 kts 340°
2026-04-20 14:41 38.81171 21.17485 38024 ft 419 kts 340°
2026-04-20 14:41 38.86723 21.15302 38026 ft 416 kts 340°
2026-04-20 14:42 38.92205 21.13142 38033 ft 414 kts 339°
2026-04-20 14:42 38.97703 21.10971 38045 ft 413 kts 339°
2026-04-20 14:43 39.03194 21.08800 38037 ft 413 kts 339°
2026-04-20 14:43 39.08691 21.06623 38037 ft 414 kts 339°
2026-04-20 14:44 39.14209 21.04434 38040 ft 415 kts 339°
2026-04-20 14:44 39.19703 21.02251 38055 ft 417 kts 339°
2026-04-20 14:45 39.25263 21.00038 38035 ft 419 kts 339°
2026-04-20 14:45 39.30839 20.97816 38033 ft 420 kts 339°
2026-04-20 14:46 39.36424 20.95586 38040 ft 420 kts 339°
2026-04-20 14:46 39.42020 20.93348 38051 ft 421 kts 339°
2026-04-20 14:47 39.47582 20.91121 38031 ft 421 kts 339°
2026-04-20 14:48 39.55974 20.87752 38023 ft 421 kts 339°
2026-04-20 14:48 39.61566 20.85501 38015 ft 420 kts 339°
2026-04-20 14:49 39.67110 20.83266 38032 ft 420 kts 339°
2026-04-20 14:49 39.72326 20.80026 37994 ft 414 kts 323°
2026-04-20 14:50 39.76958 20.75605 38017 ft 413 kts 322°
2026-04-20 14:50 39.81578 20.71189 38020 ft 413 kts 322°
2026-04-20 14:51 39.86190 20.66809 38017 ft 413 kts 322°
2026-04-20 14:51 39.90829 20.62409 38035 ft 413 kts 322°
2026-04-20 14:52 39.95472 20.58000 38029 ft 414 kts 322°
2026-04-20 14:52 40.00126 20.53571 38007 ft 414 kts 322°
2026-04-20 14:53 40.04777 20.49139 38017 ft 414 kts 322°
2026-04-20 14:53 40.09394 20.44725 38002 ft 413 kts 322°
2026-04-20 14:54 40.14022 20.40273 38018 ft 414 kts 322°
2026-04-20 14:54 40.18659 20.35802 38007 ft 414 kts 322°
2026-04-20 14:55 40.23294 20.31328 38005 ft 414 kts 322°
2026-04-20 14:55 40.27900 20.26876 38007 ft 414 kts 322°
2026-04-20 14:56 40.32532 20.22391 38000 ft 414 kts 322°
2026-04-20 14:56 40.37160 20.17902 37991 ft 414 kts 322°
2026-04-20 14:57 40.41785 20.13407 38012 ft 414 kts 322°
2026-04-20 14:57 40.46409 20.08905 38000 ft 413 kts 322°
2026-04-20 14:58 40.50994 20.04434 38004 ft 413 kts 322°
2026-04-20 14:58 40.55609 19.99925 38011 ft 413 kts 322°
2026-04-20 14:59 40.60222 19.95404 37990 ft 414 kts 322°
2026-04-20 14:59 40.64830 19.90877 38009 ft 413 kts 322°
2026-04-20 15:00 40.69432 19.86349 37985 ft 412 kts 321°
2026-04-20 15:00 40.73993 19.81852 38009 ft 413 kts 321°
2026-04-20 15:01 40.78595 19.77308 38011 ft 413 kts 321°
2026-04-20 15:01 40.83201 19.72750 37998 ft 414 kts 321°
2026-04-20 15:02 40.87809 19.68183 37999 ft 414 kts 321°
2026-04-20 15:02 40.92415 19.63611 38007 ft 415 kts 321°
2026-04-20 15:03 40.96996 19.59055 38003 ft 415 kts 321°
2026-04-20 15:03 41.01611 19.54457 38007 ft 415 kts 321°
2026-04-20 15:04 41.06231 19.49845 38000 ft 416 kts 321°
2026-04-20 15:04 41.10848 19.45228 37999 ft 416 kts 321°
2026-04-20 15:05 41.15433 19.40636 38005 ft 416 kts 321°
2026-04-20 15:05 41.20044 19.36008 38001 ft 416 kts 321°
2026-04-20 15:06 41.24654 19.31373 38001 ft 416 kts 321°
2026-04-20 15:06 41.29263 19.26730 38002 ft 415 kts 321°
2026-04-20 15:07 41.33833 19.22118 38002 ft 415 kts 321°
2026-04-20 15:07 41.38435 19.17466 37999 ft 415 kts 321°
2026-04-20 15:08 41.43040 19.12803 38007 ft 416 kts 320°
2026-04-20 15:08 41.47637 19.08136 38002 ft 415 kts 320°
2026-04-20 15:09 41.52227 19.03452 37999 ft 415 kts 320°
2026-04-20 15:09 41.56782 18.98791 38000 ft 415 kts 320°
2026-04-20 15:10 41.61366 18.94094 37995 ft 415 kts 320°
2026-04-20 15:10 41.65950 18.89388 38013 ft 415 kts 320°
2026-04-20 15:11 41.70533 18.84675 37996 ft 416 kts 320°
2026-04-20 15:11 41.75083 18.79988 37995 ft 415 kts 320°
2026-04-20 15:12 41.79660 18.75264 37986 ft 415 kts 320°
2026-04-20 15:12 41.84233 18.70534 37993 ft 415 kts 320°
2026-04-20 15:13 41.88808 18.65794 37992 ft 416 kts 320°
2026-04-20 15:13 41.93386 18.61042 37997 ft 416 kts 320°
2026-04-20 15:14 41.97942 18.56305 37989 ft 417 kts 320°
2026-04-20 15:14 42.02441 18.51398 37985 ft 415 kts 313°
2026-04-20 15:15 42.06438 18.45802 37990 ft 415 kts 311°
2026-04-20 15:15 42.10379 18.40127 37982 ft 415 kts 311°
2026-04-20 15:16 42.14307 18.34509 38016 ft 415 kts 311°
2026-04-20 15:16 42.18284 18.28855 37996 ft 416 kts 311°
2026-04-20 15:17 42.22268 18.23197 37986 ft 416 kts 311°
2026-04-20 15:17 42.26251 18.17531 37991 ft 416 kts 311°
2026-04-20 15:18 42.30232 18.11858 37989 ft 416 kts 311°
2026-04-20 15:18 42.34184 18.06213 37987 ft 416 kts 311°
2026-04-20 15:19 42.38159 18.00524 37983 ft 416 kts 311°
2026-04-20 15:19 42.42133 17.94827 37992 ft 416 kts 311°
2026-04-20 15:20 42.46103 17.89123 37983 ft 416 kts 311°
2026-04-20 15:20 42.50046 17.83446 37983 ft 416 kts 311°
2026-04-20 15:21 42.54012 17.77725 37977 ft 416 kts 311°
2026-04-20 15:21 42.57974 17.72000 37980 ft 416 kts 311°
2026-04-20 15:22 42.61932 17.66268 37977 ft 416 kts 311°
2026-04-20 15:22 42.65882 17.60535 38005 ft 416 kts 311°
2026-04-20 15:23 42.69804 17.54833 37981 ft 416 kts 311°
2026-04-20 15:23 42.73751 17.49083 37977 ft 416 kts 311°
2026-04-20 15:24 42.77695 17.43324 37984 ft 416 kts 311°
2026-04-20 15:24 42.81641 17.37553 37968 ft 416 kts 311°
2026-04-20 15:25 42.85549 17.31826 37975 ft 415 kts 311°
2026-04-20 15:25 42.89475 17.26059 37974 ft 415 kts 311°
2026-04-20 15:26 42.93393 17.20294 37980 ft 415 kts 310°
2026-04-20 15:26 42.97315 17.14510 37973 ft 415 kts 310°
2026-04-20 15:27 43.01233 17.08722 37983 ft 415 kts 310°
2026-04-20 15:27 43.05122 17.02964 37963 ft 415 kts 310°
2026-04-20 15:28 43.09030 16.97165 37969 ft 414 kts 310°
2026-04-20 15:28 43.12931 16.91367 37966 ft 414 kts 310°
2026-04-20 15:29 43.16169 16.86543 37965 ft 414 kts 310°
2026-04-20 15:29 43.20068 16.80726 37973 ft 414 kts 310°
2026-04-20 15:30 43.24595 16.73957 37955 ft 414 kts 310°
2026-04-20 15:30 43.27826 16.69116 37931 ft 413 kts 310°
2026-04-20 15:31 43.31483 16.63056 37964 ft 412 kts 306°
2026-04-20 15:31 43.34960 16.56809 37956 ft 412 kts 306°
2026-04-20 15:32 43.38449 16.50556 37960 ft 412 kts 306°
2026-04-20 15:32 43.41956 16.44312 37961 ft 412 kts 306°
2026-04-20 15:33 43.45439 16.38110 37965 ft 412 kts 306°
2026-04-20 15:33 43.48945 16.31856 37951 ft 412 kts 306°
2026-04-20 15:34 43.52725 16.25907 37974 ft 414 kts 311°
2026-04-20 15:34 43.56732 16.20208 37966 ft 414 kts 312°
2026-04-20 15:35 43.60716 16.14539 37942 ft 414 kts 312°
2026-04-20 15:35 43.64709 16.08786 37936 ft 415 kts 311°
2026-04-20 15:36 43.68689 16.03009 37938 ft 415 kts 311°
2026-04-20 15:36 43.72661 15.97221 37949 ft 415 kts 311°
2026-04-20 15:37 43.76628 15.91429 37936 ft 414 kts 311°
2026-04-20 15:37 43.80585 15.85640 37942 ft 414 kts 311°
2026-04-20 15:38 43.84509 15.79887 37943 ft 413 kts 311°
2026-04-20 15:38 43.88454 15.74091 37945 ft 413 kts 311°
2026-04-20 15:39 43.92390 15.68298 37961 ft 413 kts 311°
2026-04-20 15:39 43.96300 15.62529 37946 ft 413 kts 311°
2026-04-20 15:40 44.00229 15.56722 37946 ft 412 kts 311°
2026-04-20 15:40 44.04148 15.50917 37942 ft 412 kts 311°
2026-04-20 15:41 44.08062 15.45108 37939 ft 411 kts 311°
2026-04-20 15:41 44.11970 15.39295 37940 ft 411 kts 311°
2026-04-20 15:42 44.15845 15.33521 37957 ft 411 kts 311°
2026-04-20 15:42 44.19747 15.27692 37947 ft 411 kts 311°
2026-04-20 15:43 44.23647 15.21855 37943 ft 412 kts 310°
2026-04-20 15:43 44.27551 15.15999 37941 ft 412 kts 310°
2026-04-20 15:44 44.31424 15.10179 37951 ft 412 kts 310°
2026-04-20 15:44 44.35317 15.04317 37941 ft 411 kts 310°
2026-04-20 15:45 44.39202 14.98453 37947 ft 411 kts 310°
2026-04-20 15:45 44.43088 14.92575 37954 ft 412 kts 310°
2026-04-20 15:46 44.46949 14.86724 37944 ft 412 kts 310°
2026-04-20 15:46 44.50835 14.80822 37933 ft 412 kts 310°
2026-04-20 15:47 44.54717 14.74914 37944 ft 412 kts 310°
2026-04-20 15:47 44.58597 14.68996 37945 ft 412 kts 310°
2026-04-20 15:48 44.62473 14.63073 37940 ft 412 kts 310°
2026-04-20 15:48 44.66323 14.57175 37947 ft 412 kts 310°
2026-04-20 15:49 44.70196 14.51230 37931 ft 412 kts 310°
2026-04-20 15:49 44.74064 14.45281 37932 ft 412 kts 310°
2026-04-20 15:50 44.77926 14.39328 37943 ft 412 kts 310°
2026-04-20 15:50 44.81784 14.33368 37932 ft 412 kts 310°
2026-04-20 15:51 44.85617 14.27433 37927 ft 412 kts 310°
2026-04-20 15:51 44.89467 14.21460 37952 ft 412 kts 310°
2026-04-20 15:52 44.93313 14.15482 37934 ft 411 kts 310°
2026-04-20 15:52 44.97153 14.09498 37937 ft 411 kts 310°
2026-04-20 15:53 45.02879 14.00552 37933 ft 411 kts 310°
2026-04-20 15:53 45.06707 13.94555 37930 ft 411 kts 310°
2026-04-20 15:54 45.10529 13.88555 37918 ft 410 kts 310°
2026-04-20 15:54 45.14357 13.82532 37941 ft 410 kts 310°
2026-04-20 15:55 45.18162 13.76533 37933 ft 411 kts 310°
2026-04-20 15:55 45.21949 13.70549 37935 ft 411 kts 310°
2026-04-20 15:56 45.25760 13.64513 37939 ft 411 kts 310°
2026-04-20 15:56 45.29575 13.58459 37936 ft 411 kts 310°
2026-04-20 15:57 45.33382 13.52404 37935 ft 411 kts 310°
2026-04-20 15:57 45.37160 13.46380 37954 ft 411 kts 310°
2026-04-20 15:58 45.40958 13.40312 37945 ft 411 kts 310°
2026-04-20 15:58 45.44756 13.34232 37947 ft 411 kts 310°
2026-04-20 15:59 45.48557 13.28143 37933 ft 411 kts 311°
2026-04-20 15:59 45.52665 13.22447 37941 ft 412 kts 315°
2026-04-20 16:00 45.56833 13.16907 37938 ft 412 kts 315°
2026-04-20 16:00 45.61018 13.11314 37939 ft 412 kts 314°
2026-04-20 16:01 45.65195 13.05687 37945 ft 413 kts 314°
2026-04-20 16:01 45.69372 13.00034 37943 ft 414 kts 314°
2026-04-20 16:02 45.73526 12.94395 37930 ft 414 kts 314°
2026-04-20 16:02 45.77698 12.88721 37938 ft 413 kts 314°
2026-04-20 16:03 45.81860 12.83048 37937 ft 413 kts 314°
2026-04-20 16:03 45.86017 12.77369 37961 ft 413 kts 314°
2026-04-20 16:04 45.90175 12.71677 37900 ft 413 kts 314°
2026-04-20 16:04 45.94298 12.66021 37901 ft 412 kts 314°
2026-04-20 16:05 45.98441 12.60325 37907 ft 412 kts 314°
2026-04-20 16:05 46.02579 12.54623 37914 ft 412 kts 314°
2026-04-20 16:06 46.06707 12.48922 37896 ft 411 kts 314°
2026-04-20 16:06 46.10832 12.43213 37913 ft 411 kts 314°
2026-04-20 16:07 46.14929 12.37531 37899 ft 412 kts 314°
2026-04-20 16:07 46.19055 12.31796 37909 ft 411 kts 314°
2026-04-20 16:08 46.23170 12.26062 37899 ft 409 kts 314°
2026-04-20 16:08 46.27254 12.20362 37882 ft 409 kts 314°
2026-04-20 16:09 46.31339 12.14647 37898 ft 409 kts 314°
2026-04-20 16:09 46.35400 12.08948 37899 ft 411 kts 313°
2026-04-20 16:10 46.39460 12.03220 37936 ft 405 kts 313°
2026-04-20 16:10 46.43526 11.97506 37922 ft 407 kts 313°
2026-04-20 16:11 46.47578 11.91794 37850 ft 407 kts 313°
2026-04-20 16:11 46.51611 11.86091 37869 ft 409 kts 313°
2026-04-20 16:12 46.55679 11.80330 37871 ft 410 kts 313°
2026-04-20 16:12 46.59775 11.74504 37872 ft 414 kts 314°
2026-04-20 16:13 46.63844 11.68530 37885 ft 417 kts 311°
2026-04-20 16:13 46.67822 11.62356 37883 ft 419 kts 311°
2026-04-20 16:14 46.71787 11.56195 37902 ft 419 kts 311°
2026-04-20 16:14 46.75783 11.50015 37899 ft 418 kts 311°
2026-04-20 16:15 46.79770 11.43850 37925 ft 417 kts 311°
2026-04-20 16:15 46.83735 11.37705 37935 ft 416 kts 311°
2026-04-20 16:16 46.87694 11.31554 37953 ft 415 kts 311°
2026-04-20 16:16 46.91642 11.25408 37966 ft 414 kts 311°
2026-04-20 16:17 46.95821 11.19690 37955 ft 417 kts 323°
2026-04-20 16:17 47.00750 11.15197 37983 ft 418 kts 325°
2026-04-20 16:18 47.05686 11.10687 38043 ft 418 kts 325°
2026-04-20 16:18 47.10537 11.05936 38014 ft 419 kts 319°
2026-04-20 16:19 47.15062 11.00502 38010 ft 422 kts 318°
2026-04-20 16:19 47.19563 10.95005 38034 ft 424 kts 318°
2026-04-20 16:20 47.24129 10.89495 38028 ft 425 kts 319°
2026-04-20 16:20 47.28712 10.83987 38012 ft 426 kts 319°
2026-04-20 16:21 47.33301 10.78464 38038 ft 425 kts 319°
2026-04-20 16:21 47.37842 10.72983 38042 ft 424 kts 319°
2026-04-20 16:22 47.42594 10.67834 38052 ft 423 kts 323°
2026-04-20 16:22 47.47464 10.62968 38059 ft 422 kts 323°
2026-04-20 16:23 47.52297 10.58067 38050 ft 421 kts 323°
2026-04-20 16:23 47.57106 10.53136 38046 ft 420 kts 322°
2026-04-20 16:24 47.61865 10.48216 38060 ft 419 kts 322°
2026-04-20 16:24 47.66646 10.43262 38045 ft 419 kts 322°
2026-04-20 16:25 47.71425 10.38303 38051 ft 420 kts 322°
2026-04-20 16:25 47.76161 10.33241 38078 ft 419 kts 320°
2026-04-20 16:26 47.80688 10.27756 38057 ft 420 kts 318°
2026-04-20 16:26 47.85146 10.22224 38047 ft 420 kts 318°
2026-04-20 16:27 47.89647 10.16677 38054 ft 420 kts 319°
2026-04-20 16:27 47.94155 10.11146 38045 ft 419 kts 319°
2026-04-20 16:28 47.98652 10.05627 38045 ft 418 kts 319°
2026-04-20 16:28 48.03107 10.00146 38052 ft 417 kts 318°
2026-04-20 16:29 48.07584 9.94625 38051 ft 417 kts 318°
2026-04-20 16:29 48.12049 9.89105 38050 ft 416 kts 318°
2026-04-20 16:30 48.16503 9.83586 38034 ft 416 kts 318°
2026-04-20 16:30 48.20954 9.78057 38050 ft 416 kts 318°
2026-04-20 16:31 48.25380 9.72547 38067 ft 417 kts 318°
2026-04-20 16:31 48.29847 9.66972 38055 ft 418 kts 318°
2026-04-20 16:32 48.34307 9.61340 38051 ft 418 kts 315°
2026-04-20 16:32 48.38399 9.55136 38053 ft 418 kts 311°
2026-04-20 16:33 48.42373 9.48825 38068 ft 418 kts 312°
2026-04-20 16:33 48.46384 9.42487 38066 ft 418 kts 312°
2026-04-20 16:34 48.50412 9.36163 38076 ft 418 kts 312°
2026-04-20 16:34 48.54441 9.29842 38077 ft 418 kts 312°
2026-04-20 16:35 48.58472 9.23505 38072 ft 418 kts 312°
2026-04-20 16:35 48.62466 9.17209 38076 ft 418 kts 312°
2026-04-20 16:36 48.66481 9.10865 38069 ft 417 kts 313°
2026-04-20 16:36 48.70490 9.04513 38078 ft 417 kts 313°
2026-04-20 16:37 48.74499 8.98147 38086 ft 418 kts 312°
2026-04-20 16:37 48.78512 8.91758 38084 ft 419 kts 312°
2026-04-20 16:38 48.82530 8.85345 38086 ft 419 kts 312°
2026-04-20 16:38 48.86522 8.78957 38086 ft 420 kts 312°
2026-04-20 16:39 48.90537 8.72517 38092 ft 420 kts 312°
2026-04-20 16:39 48.94550 8.66063 38093 ft 420 kts 312°
2026-04-20 16:40 48.98566 8.59591 38109 ft 420 kts 311°
2026-04-20 16:40 49.02485 8.53064 38091 ft 420 kts 310°
2026-04-20 16:41 49.06349 8.46372 38092 ft 420 kts 309°
2026-04-20 16:41 49.10205 8.39674 38096 ft 420 kts 310°
2026-04-20 16:42 49.14067 8.32979 38094 ft 420 kts 310°
2026-04-20 16:42 49.17902 8.26330 38095 ft 420 kts 310°
2026-04-20 16:43 49.21760 8.19629 38098 ft 420 kts 310°
2026-04-20 16:43 49.25616 8.12913 38108 ft 420 kts 309°
2026-04-20 16:44 49.29475 8.06175 38108 ft 421 kts 309°
2026-04-20 16:44 49.33302 7.99474 38096 ft 421 kts 309°
2026-04-20 16:45 49.37157 7.92708 38105 ft 421 kts 309°
2026-04-20 16:45 49.41007 7.85933 38103 ft 421 kts 309°
2026-04-20 16:46 49.44857 7.79141 38103 ft 421 kts 309°
2026-04-20 16:46 49.48703 7.72337 38106 ft 421 kts 309°
2026-04-20 16:47 49.52524 7.65560 38106 ft 422 kts 309°
2026-04-20 16:47 49.56370 7.58721 38097 ft 422 kts 309°
2026-04-20 16:48 49.60214 7.51869 38104 ft 423 kts 309°
2026-04-20 16:48 49.64051 7.45009 38117 ft 422 kts 309°
2026-04-20 16:49 49.67887 7.38134 38112 ft 423 kts 309°
2026-04-20 16:49 49.71691 7.31299 38118 ft 423 kts 309°
2026-04-20 16:50 49.75521 7.24398 38130 ft 423 kts 309°
2026-04-20 16:50 49.79351 7.17478 38121 ft 424 kts 309°
2026-04-20 16:51 49.83185 7.10534 38118 ft 425 kts 309°
2026-04-20 16:51 49.87022 7.03565 38123 ft 425 kts 309°
2026-04-20 16:52 49.90833 6.96625 38116 ft 426 kts 309°
2026-04-20 16:52 49.94666 6.89626 38131 ft 426 kts 308°
2026-04-20 16:53 49.98495 6.82615 38113 ft 426 kts 308°
2026-04-20 16:53 50.02328 6.75577 38134 ft 427 kts 309°
2026-04-20 16:54 50.06161 6.68522 38133 ft 428 kts 308°
2026-04-20 16:54 50.09974 6.61483 38135 ft 428 kts 308°
2026-04-20 16:55 50.13815 6.54373 38118 ft 429 kts 308°
2026-04-20 16:55 50.17658 6.47243 38129 ft 429 kts 308°
2026-04-20 16:56 50.21104 6.39678 38142 ft 428 kts 301°
2026-04-20 16:56 50.24208 6.31758 38138 ft 427 kts 300°
2026-04-20 16:57 50.27290 6.23889 38136 ft 428 kts 301°
2026-04-20 16:57 50.30425 6.15967 38140 ft 429 kts 301°
2026-04-20 16:58 50.33571 6.08040 38156 ft 429 kts 301°
2026-04-20 16:58 50.36717 6.00092 38141 ft 430 kts 301°
2026-04-20 16:59 50.39838 5.92182 38163 ft 430 kts 301°
2026-04-20 16:59 50.42974 5.84209 38165 ft 430 kts 301°
2026-04-20 17:00 50.47667 5.72229 38173 ft 430 kts 301°
2026-04-20 17:01 50.50791 5.64227 38176 ft 430 kts 301°
2026-04-20 17:01 50.54068 5.56354 38160 ft 431 kts 303°
2026-04-20 17:02 50.57489 5.48686 38179 ft 432 kts 304°
2026-04-20 17:02 50.60945 5.40931 38160 ft 433 kts 304°
2026-04-20 17:03 50.64379 5.33138 38180 ft 433 kts 303°
2026-04-20 17:03 50.67802 5.25308 38185 ft 434 kts 303°
2026-04-20 17:04 50.71218 5.17466 38171 ft 434 kts 303°
2026-04-20 17:04 50.74602 5.09672 38189 ft 433 kts 303°
2026-04-20 17:05 50.78000 5.01825 38183 ft 433 kts 303°
2026-04-20 17:05 50.81402 4.93945 38186 ft 434 kts 303°
2026-04-20 17:06 50.84806 4.86035 38205 ft 435 kts 303°
2026-04-20 17:06 50.88211 4.78100 38188 ft 436 kts 303°
2026-04-20 17:07 50.91597 4.70185 38194 ft 437 kts 303°
2026-04-20 17:07 50.95007 4.62189 38216 ft 437 kts 303°
2026-04-20 17:08 50.98409 4.54188 38212 ft 438 kts 303°
2026-04-20 17:08 51.01808 4.46169 38208 ft 438 kts 303°
2026-04-20 17:09 51.05200 4.38143 38211 ft 437 kts 303°
2026-04-20 17:09 51.08562 4.30164 38214 ft 437 kts 303°
2026-04-20 17:10 51.11941 4.22116 38213 ft 437 kts 303°
2026-04-20 17:10 51.15312 4.14065 38200 ft 437 kts 303°
2026-04-20 17:11 51.18679 4.05997 38194 ft 437 kts 303°
2026-04-20 17:11 51.22039 3.97924 38208 ft 437 kts 303°
2026-04-20 17:12 51.25366 3.89902 38208 ft 437 kts 303°
2026-04-20 17:12 51.28716 3.81798 38196 ft 437 kts 303°
2026-04-20 17:13 51.32065 3.73679 38214 ft 438 kts 303°
2026-04-20 17:13 51.35216 3.65359 38199 ft 438 kts 294°
2026-04-20 17:14 51.37087 3.56172 38225 ft 438 kts 285°
2026-04-20 17:14 51.38677 3.46744 38217 ft 439 kts 285°
2026-04-20 17:15 51.40297 3.37317 38205 ft 439 kts 286°
2026-04-20 17:15 51.41932 3.27899 38220 ft 439 kts 286°
2026-04-20 17:16 51.43564 3.18474 38226 ft 439 kts 286°
2026-04-20 17:16 51.45175 3.09094 38226 ft 439 kts 285°
2026-04-20 17:17 51.46746 2.99620 37932 ft 444 kts 285°
2026-04-20 17:17 51.47530 2.94835 37421 ft 440 kts 285°
2026-04-20 17:17 51.48303 2.90102 36795 ft 438 kts 285°
2026-04-20 17:17 51.49071 2.85396 36162 ft 435 kts 285°
2026-04-20 17:18 51.49837 2.80701 35466 ft 434 kts 285°
2026-04-20 17:18 51.50599 2.76018 34837 ft 432 kts 285°
2026-04-20 17:18 51.51356 2.71360 34024 ft 432 kts 285°
2026-04-20 17:18 51.52110 2.66709 33305 ft 428 kts 286°
2026-04-20 17:19 51.52847 2.62150 32421 ft 428 kts 286°
2026-04-20 17:19 51.53591 2.57537 31655 ft 425 kts 286°
2026-04-20 17:19 51.54328 2.52951 30814 ft 424 kts 286°
2026-04-20 17:19 51.55108 2.48393 29980 ft 422 kts 289°
2026-04-20 17:20 51.56088 2.43979 29110 ft 420 kts 291°
2026-04-20 17:20 51.57127 2.39590 28157 ft 419 kts 291°
2026-04-20 17:20 51.58151 2.35214 27195 ft 419 kts 291°
2026-04-20 17:20 51.59155 2.30852 26550 ft 412 kts 291°
2026-04-20 17:21 51.60138 2.26538 25773 ft 410 kts 291°
2026-04-20 17:21 51.61110 2.22251 25129 ft 405 kts 291°
2026-04-20 17:21 51.62070 2.18014 24444 ft 402 kts 291°
2026-04-20 17:21 51.63240 2.14022 23733 ft 399 kts 303°
2026-04-20 17:22 51.65009 2.10619 23018 ft 394 kts 315°
2026-04-20 17:22 51.67116 2.07827 22462 ft 391 kts 326°
2026-04-20 17:22 51.69524 2.05717 22327 ft 395 kts 332°
2026-04-20 17:22 51.71946 2.03719 22251 ft 384 kts 332°
2026-04-20 17:23 51.74265 2.01790 22234 ft 366 kts 331°
2026-04-20 17:23 51.76471 1.99933 22232 ft 350 kts 331°
2026-04-20 17:23 51.78581 1.98141 22234 ft 337 kts 331°
2026-04-20 17:23 51.80688 1.96342 22265 ft 351 kts 331°
2026-04-20 17:24 51.82903 1.94445 22273 ft 370 kts 331°
2026-04-20 17:24 51.85226 1.92456 22273 ft 384 kts 331°
2026-04-20 17:24 51.87505 1.90182 22245 ft 385 kts 319°
2026-04-20 17:24 51.89194 1.86950 22273 ft 381 kts 302°
2026-04-20 17:25 51.90306 1.83071 22248 ft 381 kts 287°
2026-04-20 17:25 51.90840 1.78872 22269 ft 382 kts 281°
2026-04-20 17:25 51.91248 1.74615 22258 ft 383 kts 280°
2026-04-20 17:25 51.91626 1.70334 22258 ft 384 kts 280°
2026-04-20 17:26 51.92004 1.66038 22263 ft 385 kts 280°
2026-04-20 17:26 51.92389 1.61734 22259 ft 386 kts 280°
2026-04-20 17:26 51.92783 1.57423 22262 ft 387 kts 280°
2026-04-20 17:26 51.93182 1.53117 22258 ft 386 kts 280°
2026-04-20 17:27 51.93574 1.48910 22245 ft 369 kts 281°
2026-04-20 17:27 51.93948 1.44894 22172 ft 350 kts 280°
2026-04-20 17:27 51.94308 1.41036 21496 ft 343 kts 280°
2026-04-20 17:27 51.94663 1.37237 20714 ft 340 kts 280°
2026-04-20 17:28 51.95011 1.33508 19956 ft 337 kts 280°
2026-04-20 17:28 51.95360 1.29760 19165 ft 336 kts 280°
2026-04-20 17:28 51.95710 1.25987 18124 ft 341 kts 280°
2026-04-20 17:28 51.96063 1.22166 17054 ft 344 kts 280°
2026-04-20 17:29 51.96415 1.18336 16135 ft 343 kts 281°
2026-04-20 17:29 51.96763 1.14516 15245 ft 341 kts 280°
2026-04-20 17:29 51.97110 1.10712 14276 ft 343 kts 280°
2026-04-20 17:29 51.97458 1.06878 13221 ft 344 kts 280°
2026-04-20 17:30 51.97804 1.03036 12158 ft 344 kts 280°
2026-04-20 17:30 51.98033 1.00492 11489 ft 344 kts 280°
2026-04-20 17:30 51.98377 0.96654 10560 ft 342 kts 281°
2026-04-20 17:30 51.98715 0.92877 9843 ft 334 kts 280°
2026-04-20 17:31 51.99137 0.88119 9487 ft 308 kts 281°
2026-04-20 17:31 51.99430 0.84791 9327 ft 289 kts 281°
2026-04-20 17:31 51.99710 0.81628 9280 ft 280 kts 281°
2026-04-20 17:31 51.99987 0.78517 9282 ft 278 kts 281°
2026-04-20 17:32 52.00170 0.76455 9278 ft 280 kts 281°
2026-04-20 17:32 52.00447 0.73323 9278 ft 280 kts 281°
2026-04-20 17:32 52.00720 0.70203 9268 ft 279 kts 281°
2026-04-20 17:32 52.00993 0.67093 9265 ft 278 kts 281°
2026-04-20 17:33 52.01263 0.63986 9267 ft 277 kts 281°
2026-04-20 17:33 52.01531 0.60889 9266 ft 277 kts 281°
2026-04-20 17:33 52.01553 0.57749 9267 ft 282 kts 265°
2026-04-20 17:33 52.01210 0.54621 9270 ft 283 kts 262°
2026-04-20 17:34 52.00818 0.51487 9271 ft 284 kts 261°
2026-04-20 17:34 52.00420 0.48352 9262 ft 284 kts 261°
2026-04-20 17:34 52.00029 0.45211 9264 ft 284 kts 262°
2026-04-20 17:34 51.99638 0.42126 9254 ft 280 kts 261°
2026-04-20 17:35 51.99245 0.39057 9260 ft 276 kts 260°
2026-04-20 17:35 51.98855 0.36037 9255 ft 272 kts 261°
2026-04-20 17:35 51.98471 0.33045 9258 ft 271 kts 260°
2026-04-20 17:35 51.98082 0.30035 9269 ft 274 kts 260°
2026-04-20 17:36 51.97703 0.27001 9274 ft 275 kts 261°
2026-04-20 17:36 51.97321 0.23940 8770 ft 282 kts 262°
2026-04-20 17:36 51.96926 0.20830 8211 ft 281 kts 261°
2026-04-20 17:36 51.96523 0.17735 7554 ft 282 kts 261°
2026-04-20 17:37 51.96111 0.14588 6797 ft 288 kts 259°
2026-04-20 17:37 51.95706 0.11395 6014 ft 291 kts 262°
2026-04-20 17:37 51.95302 0.08202 5234 ft 294 kts 261°
2026-04-20 17:37 51.94817 0.04966 4495 ft 297 kts 250°
2026-04-20 17:38 51.93657 0.02282 4154 ft 288 kts 221°
2026-04-20 17:38 51.91964 0.00711 3838 ft 277 kts 200°
2026-04-20 17:38 51.90177 -0.00312 3498 ft 269 kts 197°
2026-04-20 17:38 51.88423 -0.01280 3145 ft 262 kts 197°
2026-04-20 17:39 51.86734 -0.02213 2981 ft 249 kts 197°
2026-04-20 17:39 51.85113 -0.02936 2970 ft 238 kts 181°
2026-04-20 17:39 51.83497 -0.02483 2633 ft 236 kts 149°
2026-04-20 17:39 51.82142 -0.01134 2320 ft 224 kts 142°
2026-04-20 17:40 51.80887 0.00264 2011 ft 213 kts 141°
2026-04-20 17:40 51.79735 0.01619 1958 ft 198 kts 131°
2026-04-20 17:40 51.79116 0.03462 1981 ft 189 kts 94°
2026-04-20 17:40 51.79146 0.05565 1987 ft 187 kts 82°
2026-04-20 17:41 51.79264 0.07609 1969 ft 177 kts 82°
2026-04-20 17:41 51.79476 0.09510 1949 ft 169 kts 64°
2026-04-20 17:41 51.80237 0.10883 1980 ft 165 kts 45°
2026-04-20 17:41 51.81003 0.12265 1966 ft 165 kts 46°
2026-04-20 17:42 51.81847 0.13507 1964 ft 159 kts 42°
2026-04-20 17:42 51.82612 0.14627 1865 ft 138 kts 42°
2026-04-20 17:42 51.83283 0.15646 1741 ft 130 kts 43°
2026-04-20 17:42 51.83933 0.16670 1441 ft 130 kts 44°
2026-04-20 17:43 51.84587 0.17654 1139 ft 128 kts 42°
2026-04-20 17:43 51.85241 0.18630 994 ft 129 kts 41°
2026-04-20 17:43 51.85898 0.19586 852 ft 131 kts 41°
2026-04-20 17:43 51.86574 0.20599 687 ft 132 kts 43°
2026-04-20 17:44 51.87246 0.21610 521 ft 131 kts 41°
2026-04-20 17:44 51.87908 0.22594 358 ft 130 kts 41°
2026-04-20 17:44 51.88515 0.23500 338 ft 96 kts 42°
2026-04-20 17:44 51.88862 0.24021 334 ft 54 kts 43°
2026-04-20 17:45 51.89076 0.24439 337 ft 36 kts 72°
2026-04-20 17:45 51.89125 0.24635 337 ft 15 kts 67°
2026-04-20 17:45 51.89161 0.24778 344 ft 10 kts 69°
2026-04-20 17:45 51.89164 0.24860 347 ft 0 kts 107°
2026-04-20 17:46 51.89164 0.24861 347 ft 0 kts 107°
2026-04-20 17:46 51.89129 0.24898 351 ft 9 kts 179°
2026-04-20 17:46 51.89073 0.24838 353 ft 12 kts 201°
2026-04-20 17:46 51.88986 0.24927 350 ft 20 kts 110°
2026-04-20 17:47 51.88938 0.25075 351 ft 9 kts 131°
2026-04-20 17:47 51.88953 0.25149 350 ft 6 kts 43°
2026-04-20 17:47 51.88971 0.25176 351 ft 0 kts 42°